Wetbulb
36.68 30.08 25.93 29.21 32.25 32.92 32.15 32.70 34.46 38.90 43.24 43.14 42.62 44.01 46.49 48.52 48.91 49.02 52.35 53.48 52.47 52.35 56.39 58.00 58.33 59.31 59.19 59.52 59.69 60.09 59.41 57.95 59.30 57.10 55.98 54.60 51.34 49.94 49.30 49.24 49.72 49.60 48.97 47.65
30.44 27.46 31.92 33.57 33.34 32.04 31.97 31.07 32.65 37.80 41.79 40.79 40.77 40.51 43.37 45.92 47.88 50.58 51.63 53.12 53.75 53.44 54.60 56.57 57.29 57.89 58.43 58.61 59.23 59.84 59.25 58.63 59.48 58.77 56.97 52.92 48.98 47.46 46.94 46.85 46.39 46.95 46.37 45.64
27.09 28.98 33.93 32.53 31.42 30.08 31.13 31.22 32.28 33.70 39.76 41.59 39.67 37.99 39.94 44.62 46.55 49.43 53.37 54.80 55.22 54.27 53.33 54.94 56.25 57.14 57.98 58.28 58.80 59.13 58.50 59.09 59.78 55.11 51.06 48.10 47.23 46.43 45.54 44.76 43.92 43.86 44.18 43.96
30.97 34.21 31.38 30.53 29.55 32.00 26.06 34.03 34.13 33.37 36.62 33.12 39.23 29.62 37.61 41.43 43.80 46.97 49.86 54.10 54.74 55.24 54.69 54.80 55.71 56.30 57.41 58.03 59.08 58.84 57.83 59.19 57.06 53.36 50.50 50.70 49.76 46.10 45.51 43.78 42.69 42.04 42.66 42.09
27.90 32.16 31.43 29.05 30.39 33.62 30.93 36.41 36.60 34.23 35.75 35.84 36.38 34.02 34.02 42.88 42.75 44.91 49.28 53.32 54.70 55.63 55.88 54.61 55.07 55.88 56.68 57.13 57.63 57.80 57.30 59.06 55.04 54.15 52.70 51.59 47.46 44.09 42.34 41.78 40.60 40.21 40.43 40.80
31.17 35.85 35.22 33.96 34.97 35.09 38.05 34.88 35.98 37.33 33.65 27.39 32.73 33.75 31.50 40.02 43.27 45.39 48.52 52.62 54.76 55.70 56.45 56.19 55.80 55.73 55.10 55.70 56.73 56.54 57.50 56.51 54.95 54.00 52.84 48.96 44.55 42.57 40.93 39.89 37.93 37.67 38.54 38.54
30.37 33.42 35.65 37.08 33.63 38.03 35.67 33.38 26.40 25.43 25.39 20.39 34.14 33.53 34.68 40.50 43.24 47.10 48.10 52.08 55.09 56.28 56.67 54.48 52.80 53.20 53.60 54.63 55.81 56.43 57.01 54.60 54.02 53.16 49.59 47.11 45.32 43.59 41.23 39.40 37.68 37.02 37.02 37.26
24.75 23.95 33.65 37.12 33.76 34.28 33.02 32.96 27.04 16.37 21.95 26.66 35.63 30.40 34.50 41.20 44.69 48.32 50.45 54.03 54.52 55.24 55.21 53.32 53.30 52.85 52.61 52.76 54.83 55.23 54.59 51.31 50.15 48.41 46.56 45.15 43.55 42.35 41.05 40.14 38.77 37.79 37.12 37.20
23.05 25.66 34.71 35.68 35.50 38.73 34.90 32.26 35.40 29.67 31.68 23.42 30.28 35.93 39.15 43.63 44.59 47.19 49.86 53.26 54.05 53.98 53.34 52.68 51.03 50.74 49.50 49.39 49.16 48.87 47.43 47.25 48.00 46.68 45.18 43.97 43.20 42.02 40.47 38.88 38.40 37.58 37.13 37.16
29.32 23.53 34.55 36.01 35.84 38.80 38.01 37.81 28.57 31.81 17.36 19.23 28.69 31.95 35.79 36.17 41.62 45.89 49.78 52.06 53.15 51.63 50.25 48.35 48.58 48.53 47.83 46.05 45.89 45.98 45.93 44.65 45.01 44.77 44.21 43.15 42.04 40.14 38.88 38.08 36.92 36.83 36.66 36.19
30.51 29.23 29.69 33.99 31.63 34.02 36.90 33.92 35.90 35.15 32.10 27.77 26.53 29.28 36.85 36.48 38.37 46.69 49.64 50.82 48.58 47.20 45.77 44.40 43.66 43.32 43.26 43.73 43.93 43.08 43.27 42.01 41.28 40.91 40.25 39.30 38.46 38.37 38.29 37.79 37.69 37.05 36.96 36.22
30.93 29.32 25.99 28.93 33.00 37.56 38.35 37.20 37.24 27.22 28.60 31.13 30.34 30.74 40.67 41.44 42.85 47.75 45.50 44.73 44.42 44.15 42.91 41.60 41.00 40.93 40.44 39.86 39.53 39.77 40.63 40.27 40.61 40.67 40.32 39.37 39.00 39.01 38.93 38.49 37.92 37.58 34.91 33.17
31.29 28.61 23.81 26.07 32.07 35.24 33.75 35.68 38.22 36.86 32.92 30.53 28.67 32.20 40.79 41.60 41.64 42.84 41.44 41.79 41.27 40.43 39.85 39.68 39.74 39.18 38.50 38.39 38.76 39.02 39.48 39.21 39.89 40.25 39.84 39.48 39.18 39.19 38.45 37.39 34.99 33.06 32.34 31.56
33.41 31.30 26.10 22.29 27.29 31.72 31.46 33.53 38.36 35.57 30.92 30.68 30.56 32.65 36.91 39.17 38.90 39.67 40.19 40.46 40.15 39.69 39.55 38.73 38.47 38.36 38.64 38.87 39.21 39.46 39.48 40.09 40.17 40.27 39.88 38.97 38.67 37.74 35.64 33.37 31.67 30.64 30.59 30.46
27.69 25.87 27.20 28.83 31.31 32.42 32.48 32.29 35.59 33.90 32.78 30.25 31.39 31.56 36.09 39.41 38.44 38.99 39.26 39.24 38.51 38.14 38.61 38.51 38.11 38.21 38.37 38.43 39.01 39.53 39.28 39.30 39.70 39.30 38.85 37.43 35.88 34.84 32.39 30.60 29.90 29.37 29.05 29.15
27.30 23.49 26.46 26.31 29.69 31.81 30.15 30.60 34.19 36.10 37.14 32.98 33.31 32.01 38.70 39.39 39.34 38.60 38.92 38.85 38.00 38.12 38.37 38.50 38.35 38.38 38.23 38.59 38.85 39.31 38.99 38.26 39.01 38.14 37.05 35.39 32.82 30.26 29.71 29.20 28.67 27.98 27.76 27.40
24.16 22.58 23.22 21.61 27.04 29.32 25.53 27.71 30.02 34.80 36.36 33.61 29.26 33.09 39.17 38.33 38.49 38.16 38.20 38.54 37.80 37.76 37.85 37.89 37.92 38.31 38.87 39.20 39.62 38.96 38.32 37.86 37.49 36.43 34.67 32.33 30.38 29.00 28.50 27.99 27.22 26.66 26.20 25.86
23.38 23.35 25.11 22.87 24.71 18.64 27.91 32.87 34.58 34.96 32.89 36.01 35.47 34.88 37.51 37.23 37.06 37.59 39.82 39.56 39.21 38.63 38.12 38.29 38.22 38.77 39.30 39.53 38.73 37.35 36.59 36.42 35.80 34.85 33.33 31.00 29.43 28.07 27.16 26.36 25.88 25.48 24.86 24.38
27.25 24.14 20.34 19.14 19.73 26.11 27.25 27.96 28.36 28.09 30.54 31.95 34.02 36.25 36.30 37.17 38.58 35.38 35.53 39.53 40.54 39.85 39.68 39.90 40.00 39.71 38.83 38.61 37.64 36.18 34.57 34.74 34.25 33.62 31.92 29.94 28.43 27.49 26.34 25.66 25.70 25.26 24.60 23.42
27.06 26.67 21.38 16.16 19.23 17.37 25.01 28.92 32.85 31.39 30.59 31.41 33.58 35.41 34.21 35.53 33.83 32.68 33.51 34.61 36.41 37.89 39.19 39.29 39.93 39.73 39.24 37.92 36.95 35.66 34.81 33.78 33.48 33.00 31.88 30.51 29.51 28.70 27.79 27.30 26.73 25.08 24.69 24.40
18.82 20.02 15.12 16.93 19.03 23.48 25.87 31.07 33.85 26.37 26.91 30.50 33.44 34.85 33.06 30.69 30.93 31.66 32.60 32.17 32.25 32.51 34.30 36.02 36.02 34.24 34.06 36.22 36.03 35.56 34.95 34.01 34.27 32.89 31.41 29.97 29.51 29.33 28.43 27.62 25.48 22.45 21.32 21.91
13.41 18.96 16.09 21.41 19.10 18.56 28.20 31.62 25.67 27.42 29.85 31.47 33.22 33.98 31.71 30.85 30.87 30.14 30.10 29.90 29.98 29.41 30.16 30.89 30.48 29.32 29.09 30.21 33.51 32.34 31.16 27.19 26.66 26.83 26.35 25.86 24.30 24.11 23.45 20.05 19.00 17.81 17.26 17.20
21.57 23.42 21.46 25.74 24.43 26.29 30.72 29.33 29.27 29.37 29.71 31.46 32.61 32.55 32.65 30.60 29.13 29.20 28.46 28.26 27.79 27.51 27.24 27.90 27.74 26.10 24.23 23.82 25.43 25.12 23.02 21.95 19.80 18.76 17.88 15.81 15.96 19.05 18.86 16.34 16.94 15.40 13.53 14.41
26.66 24.62 23.20 25.11 25.67 27.74 29.46 28.31 28.44 29.70 30.72 31.29 31.78 31.67 31.25 28.99 28.58 27.43 27.65 26.86 26.08 24.98 23.89 23.89 23.69 22.22 20.66 19.97 20.58 19.18 19.13 17.91 15.93 16.35 16.39 15.17 14.73 16.09 14.08 17.04 17.59 15.26 15.48 14.17
23.70 23.62 21.60 23.67 26.14 27.84 31.28 28.01 27.14 28.15 30.01 30.18 28.68 28.14 27.99 28.08 26.24 25.79 24.88 24.17 23.21 22.03 20.58 19.66 19.28 18.42 16.66 16.63 16.21 14.27 14.61 13.94 16.53 15.81 15.28 15.41 14.69 12.14 14.87 15.55 16.66 17.55 19.39 19.88
23.45 21.70 21.71 22.55 25.34 25.96 27.90 26.81 26.04 25.42 25.18 25.61 27.15 25.40 23.42 25.57 25.51 23.92 21.16 20.06 19.50 17.81 16.66 16.73 14.96 13.75 12.23 11.80 12.38 11.53 10.32 10.14 10.67 14.66 15.40 14.83 15.01 14.20 14.43 14.07 16.26 22.52 25.64 27.53
MSLP
1015.27 1015.48 1014.94 1014.12 1014.06 1013.74 1013.47 1012.45 1011.09 1010.02 1009.25 1008.62 1007.87 1007.93 1007.46 1007.26 1007.08 1007.16 1007.36 1007.87 1008.58 1009.15 1009.85 1010.97 1011.34 1012.20 1013.01 1013.48 1013.90 1014.43 1015.15 1015.80 1016.41 1017.22 1017.88 1018.61 1019.33 1019.88 1020.32 1020.59 1020.77 1020.94 1021.25 1021.60
1015.38 1014.36 1013.38 1013.83 1013.92 1013.67 1013.03 1012.39 1011.16 1010.46 1009.28 1009.35 1008.35 1007.88 1007.47 1006.76 1006.31 1006.47 1006.71 1007.27 1007.67 1008.74 1009.72 1010.70 1011.10 1011.80 1012.34 1012.96 1013.53 1014.06 1014.73 1015.34 1016.03 1016.74 1017.52 1018.23 1019.30 1020.19 1020.64 1021.04 1021.25 1021.42 1021.58 1021.97
1014.39 1012.51 1012.97 1012.92 1012.95 1012.96 1012.11 1011.87 1010.98 1010.77 1009.34 1008.94 1008.68 1008.06 1007.23 1006.20 1005.99 1005.90 1005.83 1006.45 1006.85 1007.53 1008.46 1009.63 1010.46 1011.13 1011.77 1012.60 1013.06 1013.59 1014.34 1014.96 1015.65 1016.43 1017.44 1018.52 1019.57 1020.44 1021.01 1021.36 1021.70 1021.89 1022.02 1022.31
1013.14 1011.59 1011.92 1012.15 1011.73 1011.91 1011.07 1011.05 1010.95 1010.54 1009.45 1008.56 1008.32 1007.14 1005.83 1005.15 1004.79 1004.83 1005.05 1005.70 1006.07 1006.81 1007.70 1008.84 1009.80 1010.60 1011.17 1011.90 1012.68 1013.13 1013.89 1014.61 1015.43 1016.09 1017.04 1017.73 1018.65 1019.96 1020.51 1021.11 1021.81 1022.18 1022.39 1022.67
1011.61 1010.92 1010.73 1010.63 1009.53 1010.79 1009.10 1010.01 1009.88 1009.94 1008.92 1008.52 1007.56 1007.51 1004.82 1004.31 1004.14 1003.68 1003.58 1004.43 1005.23 1005.96 1006.68 1008.01 1008.80 1009.79 1010.67 1011.54 1012.25 1012.90 1013.66 1014.31 1015.11 1015.76 1016.53 1017.36 1018.34 1019.41 1020.44 1021.38 1021.91 1022.47 1022.80 1023.04
1010.84 1010.28 1009.83 1008.76 1008.67 1008.72 1009.62 1009.59 1009.81 1008.19 1008.38 1007.74 1006.62 1006.57 1004.85 1003.34 1002.30 1002.50 1003.28 1003.91 1004.47 1005.16 1005.86 1007.06 1008.43 1009.64 1010.41 1011.21 1012.03 1012.58 1013.39 1014.18 1014.78 1015.56 1016.33 1016.99 1017.88 1019.21 1020.37 1021.35 1022.00 1022.69 1023.16 1023.44
1009.03 1008.50 1008.57 1008.40 1008.13 1008.24 1008.71 1008.87 1007.56 1008.13 1007.29 1006.73 1005.89 1005.90 1003.39 1001.92 1001.51 1000.91 1001.36 1002.78 1003.90 1004.80 1005.81 1007.30 1008.51 1009.56 1010.24 1010.90 1011.80 1012.49 1013.26 1014.05 1014.59 1015.28 1016.20 1017.01 1017.78 1018.66 1019.70 1020.76 1021.84 1022.26 1023.24 1023.55
1010.36 1008.38 1007.79 1007.29 1006.97 1006.03 1006.62 1007.21 1005.92 1006.44 1006.70 1006.34 1005.94 1004.33 1002.24 1001.50 1001.18 1000.91 1001.19 1001.91 1003.70 1005.16 1006.08 1007.31 1008.33 1009.14 1010.12 1010.76 1011.63 1012.35 1013.19 1013.98 1014.57 1015.42 1016.34 1017.22 1018.06 1018.95 1020.00 1020.62 1021.71 1022.20 1022.90 1023.33
1011.42 1009.18 1007.66 1006.91 1006.19 1005.59 1005.79 1005.77 1005.28 1005.04 1004.66 1005.68 1004.85 1003.67 1002.27 1001.08 1001.02 1000.48 1001.19 1001.84 1003.34 1005.02 1006.11 1007.25 1008.62 1009.55 1010.37 1011.23 1012.01 1012.46 1013.37 1014.22 1014.75 1015.41 1016.40 1017.41 1018.37 1019.35 1020.30 1020.99 1021.91 1022.67 1022.24 1023.65
1011.78 1009.31 1007.22 1006.37 1005.81 1004.87 1004.93 1004.75 1004.79 1004.39 1005.30 1005.16 1004.14 1003.44 1002.28 1002.21 1001.39 1000.96 1001.46 1002.07 1003.53 1005.01 1006.68 1008.07 1009.17 1010.05 1011.07 1011.86 1012.67 1013.30 1013.70 1014.53 1015.32 1015.88 1016.64 1017.46 1018.49 1019.33 1020.26 1021.20 1021.83 1022.86 1023.10 1023.13
1012.28 1010.54 1007.25 1006.82 1006.14 1005.22 1004.49 1004.16 1004.12 1004.07 1004.55 1004.26 1004.15 1003.45 1003.45 1003.16 1002.84 1001.75 1002.14 1003.13 1004.42 1005.94 1007.53 1008.57 1009.48 1010.94 1012.01 1012.68 1013.08 1013.94 1014.59 1014.89 1015.95 1016.31 1017.15 1018.01 1018.58 1019.72 1020.40 1021.08 1021.95 1022.98 1023.40 1023.36
1012.26 1010.84 1008.40 1006.69 1005.68 1005.61 1004.85 1004.55 1004.21 1004.24 1004.60 1004.47 1004.43 1004.04 1003.78 1003.32 1002.72 1002.41 1003.47 1004.63 1005.85 1007.20 1008.31 1009.55 1010.47 1011.55 1012.55 1013.36 1014.36 1014.89 1014.73 1015.41 1016.61 1017.11 1017.67 1018.17 1019.27 1020.48 1020.97 1021.45 1021.83 1023.29 1023.36 1023.55
1013.61 1011.38 1009.43 1006.84 1005.78 1005.66 1005.87 1005.37 1004.83 1004.20 1004.53 1004.66 1004.63 1004.59 1004.03 1003.72 1003.61 1004.18 1004.80 1006.01 1007.03 1008.10 1009.40 1010.41 1011.38 1012.41 1013.39 1014.21 1014.97 1015.84 1016.29 1015.92 1016.97 1017.61 1018.80 1019.13 1019.68 1020.45 1020.93 1021.92 1022.59 1023.19 1023.18 1023.50
1013.88 1012.89 1012.37 1011.13 1009.74 1008.86 1007.32 1006.26 1005.17 1004.77 1005.03 1004.99 1005.26 1005.03 1004.84 1005.05 1005.29 1005.83 1006.49 1007.19 1008.19 1009.27 1010.01 1011.04 1011.94 1013.11 1013.95 1014.71 1015.50 1015.85 1016.72 1016.74 1017.90 1018.00 1018.57 1019.17 1020.28 1020.81 1021.61 1022.47 1022.93 1023.14 1023.59 1023.73
1015.87 1014.36 1013.13 1011.64 1010.09 1008.88 1007.82 1006.83 1005.87 1006.01 1005.76 1005.80 1006.05 1005.98 1006.03 1006.15 1006.60 1006.91 1007.85 1008.63 1009.45 1009.85 1011.11 1011.82 1012.72 1013.74 1014.21 1014.95 1015.59 1016.68 1016.84 1017.51 1018.42 1018.94 1019.29 1019.91 1020.69 1021.40 1022.07 1022.80 1023.12 1023.41 1023.94 1024.06
1016.87 1015.33 1013.90 1011.59 1010.31 1009.21 1008.69 1007.74 1007.20 1007.01 1006.82 1007.02 1006.93 1007.21 1007.39 1007.49 1007.63 1008.37 1008.83 1009.25 1010.26 1010.97 1011.47 1012.21 1012.99 1013.82 1014.81 1015.58 1016.18 1017.07 1017.21 1018.18 1019.03 1019.57 1020.10 1020.62 1021.42 1021.93 1022.51 1022.97 1023.21 1023.75 1024.18 1024.01
1018.40 1017.29 1015.25 1013.14 1011.03 1009.61 1009.36 1009.61 1009.09 1008.62 1008.47 1008.43 1008.62 1009.11 1008.28 1008.21 1008.51 1009.40 1010.18 1010.51 1011.01 1011.56 1012.19 1012.99 1013.96 1014.72 1015.48 1016.40 1016.75 1017.37 1018.02 1018.78 1019.65 1020.15 1020.46 1021.04 1021.69 1022.25 1022.59 1022.87 1023.35 1023.91 1024.04 1023.95
1019.52 1018.20 1016.63 1014.49 1011.76 1010.94 1011.15 1010.33 1009.93 1010.01 1010.40 1010.14 1009.88 1009.79 1009.67 1009.74 1010.20 1010.56 1010.92 1011.35 1011.98 1012.45 1013.07 1013.61 1014.40 1015.15 1016.00 1016.79 1017.37 1017.97 1018.65 1019.24 1019.61 1020.27 1020.98 1021.46 1021.76 1022.28 1022.51 1022.83 1023.27 1023.57 1023.79 1023.96
1020.32 1019.27 1017.89 1016.40 1014.43 1013.01 1011.77 1011.86 1012.36 1012.39 1012.05 1012.07 1011.67 1011.19 1010.97 1010.95 1010.90 1012.21 1012.86 1012.69 1013.03 1013.34 1013.75 1014.40 1015.01 1015.81 1016.61 1017.26 1017.97 1018.61 1019.19 1019.51 1020.01 1020.55 1020.94 1021.27 1021.57 1022.06 1022.48 1022.79 1022.92 1023.14 1023.28 1023.36
1020.51 1019.92 1019.22 1017.57 1016.30 1015.00 1014.79 1013.72 1013.13 1013.09 1013.41 1013.64 1013.32 1012.59 1012.17 1011.66 1012.67 1014.42 1014.42 1014.37 1014.34 1014.50 1014.80 1015.36 1015.90 1016.51 1017.27 1017.84 1018.25 1018.82 1019.40 1019.86 1020.30 1020.57 1020.79 1021.16 1021.50 1021.81 1022.00 1022.16 1022.43 1022.58 1022.70 1022.80
1020.75 1020.11 1019.69 1018.73 1017.41 1016.29 1016.17 1014.71 1013.48 1014.34 1016.31 1015.24 1014.56 1014.22 1013.58 1014.07 1015.50 1016.03 1015.97 1015.97 1016.14 1016.18 1016.23 1016.53 1017.04 1017.88 1018.52 1018.65 1018.90 1019.44 1019.97 1020.46 1020.44 1020.53 1020.72 1020.99 1021.31 1021.50 1021.74 1021.95 1022.20 1022.36 1022.69 1022.81
1021.43 1020.85 1020.08 1019.03 1018.45 1017.98 1017.21 1015.59 1016.40 1018.08 1017.06 1016.65 1015.93 1015.58 1015.50 1016.21 1016.71 1017.18 1017.44 1017.47 1017.71 1017.97 1018.06 1018.37 1018.66 1019.39 1019.87 1019.79 1019.81 1020.41 1020.96 1021.33 1021.18 1021.24 1021.34 1021.41 1021.47 1021.59 1021.79 1022.02 1022.16 1022.38 1022.81 1023.08
1021.66 1021.15 1020.84 1020.30 1020.04 1019.59 1019.46 1019.29 1019.18 1018.86 1018.29 1017.68 1017.28 1017.17 1017.34 1017.49 1017.96 1018.61 1019.02 1019.16 1019.53 1019.78 1020.00 1020.10 1020.23 1020.81 1021.17 1021.17 1021.34 1021.76 1022.26 1022.09 1021.93 1021.89 1022.27 1022.47 1022.30 1022.27 1022.33 1022.54 1022.70 1022.84 1022.86 1022.77
1021.72 1021.37 1021.05 1020.60 1020.27 1020.41 1020.35 1020.01 1019.74 1019.53 1019.35 1019.29 1018.97 1018.89 1018.73 1018.70 1019.28 1019.69 1020.08 1020.59 1020.87 1021.23 1021.45 1021.70 1021.72 1022.19 1022.70 1022.82 1022.90 1023.23 1023.15 1022.86 1022.72 1022.65 1022.55 1022.45 1022.64 1022.47 1022.36 1022.40 1022.46 1022.76 1022.42 1022.15
1023.15 1022.45 1021.95 1021.52 1021.08 1021.29 1021.11 1021.44 1021.36 1020.89 1020.44 1020.36 1020.34 1020.35 1020.35 1020.42 1021.01 1021.41 1021.90 1022.47 1022.87 1023.05 1023.08 1023.23 1023.47 1023.88 1024.33 1024.20 1024.16 1024.30 1023.98 1023.66 1023.60 1023.57 1023.49 1023.34 1023.21 1023.17 1022.82 1022.58 1022.33 1022.06 1021.74 1021.70
1024.13 1023.80 1023.58 1023.36 1022.95 1022.95 1022.78 1022.62 1022.47 1022.08 1022.15 1022.13 1021.89 1022.06 1022.23 1022.11 1022.45 1022.80 1023.45 1024.13 1024.15 1024.22 1024.59 1024.66 1025.07 1025.20 1025.37 1025.20 1025.23 1025.28 1025.19 1024.87 1024.92 1024.71 1024.50 1024.32 1024.04 1023.71 1023.28 1022.81 1021.89 1021.64 1020.95 1020.60
Wind_Speed
5 4 12 21 18 18 17 19 15 11 7 9 18 15 14 11 5 13 14 15 17 18 14 14 14 14 13 12 14 14 12 11 10 7 6 5 5 4 4 5 6 6 5 7
3 14 21 14 12 17 20 19 16 17 11 7 8 8 11 12 14 8 13 16 17 15 15 16 16 15 15 14 15 15 12 13 10 8 5 5 4 5 5 4 6 6 7 7
15 22 10 17 15 17 20 20 15 20 6 8 2 6 12 10 16 12 10 15 17 20 20 18 18 18 15 15 15 15 13 14 11 11 9 8 7 5 3 3 4 5 7 7
12 15 21 17 18 15 20 19 19 15 9 6 13 8 11 17 18 18 15 15 17 18 16 16 16 16 17 16 14 14 13 13 12 14 10 16 7 5 3 4 5 5 6 7
8 11 9 19 28 15 16 15 18 23 10 4 9 7 5 9 15 20 20 16 17 17 17 19 19 18 15 13 13 11 12 13 14 13 13 9 8 5 6 6 9 7 6 6
22 12 12 18 20 20 5 4 17 4 6 6 10 11 5 9 21 21 18 14 17 16 14 13 14 14 13 12 12 12 15 13 14 13 13 12 14 13 10 8 7 5 4 5
19 9 4 7 6 15 16 9 4 7 5 6 5 11 14 5 5 20 26 16 15 15 15 14 14 14 13 15 13 12 15 13 12 12 10 10 11 12 13 11 8 10 5 4
8 8 6 9 7 11 23 11 5 8 7 4 2 11 7 2 6 12 17 15 17 16 16 16 16 14 14 13 13 14 14 13 12 11 11 11 11 8 9 9 7 6 5 5
6 6 2 7 3 3 14 8 4 4 5 4 5 4 8 2 8 16 17 18 17 16 15 14 11 10 10 10 10 12 11 8 11 13 12 12 12 11 9 10 8 5 8 5
6 10 1 2 3 4 7 8 3 2 4 3 4 4 1 6 4 17 17 18 16 15 13 12 11 11 8 10 8 9 12 12 11 12 11 11 12 14 12 10 10 6 5 6
10 5 12 5 2 1 4 3 2 4 1 2 2 2 1 8 10 17 15 14 15 15 13 11 12 11 10 9 10 8 10 12 10 11 13 11 12 10 11 10 8 5 6 7
6 6 8 7 8 7 2 4 1 3 2 1 2 2 5 8 8 10 13 13 13 12 13 11 11 11 11 11 10 8 9 12 10 10 9 14 12 7 7 6 7 5 6 5
10 6 9 10 4 8 7 5 2 4 4 3 2 0 7 9 10 10 15 12 12 13 12 12 11 10 10 10 10 8 5 13 12 12 10 11 11 8 7 6 6 6 6 6
10 4 9 8 7 5 6 6 2 5 2 4 3 4 9 9 9 9 11 12 11 11 11 11 11 10 9 9 8 9 8 10 8 11 11 10 6 5 5 4 5 5 4 5
9 4 10 12 7 6 5 9 14 7 4 5 6 6 9 8 8 7 10 11 12 12 10 10 10 9 9 8 10 7 9 9 6 6 7 6 6 4 5 5 4 5 4 4
11 6 9 5 8 7 5 17 12 11 5 5 7 7 5 5 9 9 9 11 10 9 10 10 10 10 9 9 9 8 10 8 7 6 5 5 5 4 4 4 4 4 5 5
8 9 8 7 13 10 5 9 7 3 13 5 9 5 5 8 10 9 8 8 8 8 8 9 10 10 9 8 8 9 7 7 5 5 5 4 5 5 5 4 5 6 6 4
7 9 4 6 9 8 5 6 2 11 13 13 12 11 8 8 10 13 10 7 7 7 7 7 7 9 9 7 7 8 7 6 5 4 4 4 4 5 5 5 6 5 4 5
3 4 5 4 4 4 5 11 9 8 7 15 11 10 5 3 8 11 13 10 6 6 6 6 6 6 7 7 6 7 6 5 4 5 5 5 6 6 6 7 7 5 4 5
2 3 2 5 3 3 3 15 16 7 3 16 14 13 8 6 7 4 11 9 11 10 6 7 7 7 7 5 6 6 5 4 4 3 5 5 5 6 6 6 6 5 4 5
3 3 1 4 2 4 8 23 10 5 6 14 12 10 9 7 4 3 5 11 9 8 9 8 10 9 7 5 4 4 2 1 3 3 4 4 5 5 6 5 3 2 4 4
2 2 2 2 4 6 17 9 9 6 6 6 7 8 11 9 9 9 10 12 12 13 12 11 11 10 8 7 5 5 6 5 4 3 1 2 2 2 2 3 2 1 2 4
3 1 2 3 2 3 5 4 6 4 3 6 5 7 6 7 11 9 10 12 12 12 10 8 9 9 9 9 7 6 5 6 5 5 5 4 4 4 3 2 3 2 2 3
2 4 2 1 3 5 8 9 10 6 4 5 7 7 9 13 10 11 11 10 10 10 10 7 8 9 9 8 8 6 6 5 4 4 5 3 3 4 2 2 1 3 4 3
2 6 4 1 3 2 5 10 9 8 10 13 11 10 10 10 10 9 10 10 8 8 8 7 9 9 9 8 10 10 10 8 7 6 5 5 3 3 4 3 4 4 6 7
2 2 3 2 4 1 3 7 7 11 10 10 8 11 12 10 10 9 10 6 7 8 7 8 8 7 7 7 8 10 10 9 7 6 5 5 5 4 3 4 7 8 15 19
Wind_Direction
205 175 218 231 223 235 258 265 251 222 237 253 222 236 227 228 232 215 198 190 189 197 188 187 169 169 171 174 170 170 162 159 146 140 138 125 116 97 77 74 73 84 87 83
261 235 236 244 230 236 243 260 263 253 221 238 289 246 237 242 235 208 208 196 191 181 172 180 175 175 175 173 176 173 167 158 160 155 136 120 126 86 91 90 72 71 86 87
236 247 239 224 221 234 247 244 255 250 173 216 259 263 254 242 236 211 194 200 191 186 177 178 178 183 174 180 178 176 165 162 158 126 113 97 95 95 99 90 83 71 86 88
249 264 231 236 227 213 246 222 244 274 174 214 169 261 221 223 226 216 200 200 194 183 177 178 181 179 184 185 179 174 163 159 146 147 138 155 149 153 154 123 116 96 86 87
245 234 222 217 219 182 245 207 245 230 214 203 189 236 252 181 207 205 194 194 193 180 171 180 180 184 182 173 175 168 159 159 157 156 156 157 125 101 115 117 117 106 90 83
249 225 247 217 223 207 162 215 243 121 202 205 193 205 245 197 204 204 200 188 184 177 171 187 183 173 169 165 170 164 163 160 159 158 160 153 144 143 139 142 129 119 105 99
306 214 184 198 241 207 188 192 167 202 207 195 194 195 241 214 249 204 188 171 167 168 164 166 159 164 159 162 164 161 162 160 157 153 144 144 144 146 144 143 144 134 133 116
337 323 182 166 238 173 182 216 174 171 168 146 188 223 237 255 276 232 189 155 167 163 158 168 169 163 163 156 161 158 162 151 146 138 130 126 124 130 135 133 138 123 138 129
291 251 281 257 217 203 170 204 252 192 55 65 210 266 274 316 271 177 158 147 164 164 161 157 149 151 143 144 149 139 123 123 134 132 128 128 126 122 123 120 120 142 118 162
284 290 112 302 8 301 228 155 154 34 142 231 224 253 283 353 236 166 160 156 156 143 140 135 134 130 119 111 103 109 118 118 117 120 126 131 131 131 131 139 123 160 143 133
305 273 309 326 40 212 129 168 47 91 140 99 269 247 196 290 293 170 158 131 133 131 129 120 113 101 99 93 102 102 114 116 113 118 116 111 117 124 132 130 134 145 151 155
310 310 293 285 236 258 58 42 25 143 169 209 265 287 340 290 276 135 113 110 111 116 117 113 106 101 96 89 80 87 112 109 106 121 126 116 101 128 128 122 127 167 170 157
334 309 317 336 53 26 36 324 5 79 82 238 218 65 344 35 66 96 108 105 103 105 102 104 99 96 100 97 94 91 83 103 113 110 120 122 133 145 126 137 171 182 156 151
341 327 354 332 307 289 297 347 10 84 5 318 41 9 21 49 55 74 91 95 98 101 102 104 103 99 98 108 107 116 136 110 128 135 141 134 140 119 119 139 179 151 164 156
7 292 338 298 313 310 323 355 35 51 8 43 358 38 19 16 58 52 95 104 105 93 100 102 107 115 117 115 116 123 103 103 108 119 122 109 101 121 151 172 163 144 170 179
342 308 326 293 335 342 5 21 13 33 48 72 21 49 11 47 82 89 84 87 98 117 127 119 116 122 123 127 123 132 120 118 125 112 108 117 152 157 166 165 152 157 204 199
324 336 332 301 321 305 24 357 354 21 41 5 40 339 339 35 50 68 82 91 107 115 126 129 130 128 130 143 131 129 122 114 122 142 143 172 176 177 172 160 173 209 215 198
306 321 292 289 322 37 295 352 5 62 44 29 28 20 39 72 68 44 29 69 90 109 105 98 113 115 125 130 118 117 129 148 154 165 187 178 163 190 186 187 210 216 206 217
235 300 314 345 316 295 5 17 5 360 36 22 359 12 39 125 91 49 13 24 63 92 102 118 119 113 111 115 124 119 130 143 170 213 214 196 189 194 196 214 220 214 212 216
231 257 329 347 357 358 11 324 320 295 52 8 356 345 343 332 66 18 3 20 38 47 63 95 99 104 113 130 134 141 164 186 230 237 230 205 197 208 216 221 225 210 211 230
352 10 43 315 332 312 353 317 305 45 315 331 332 351 0 71 42 48 24 48 45 45 51 59 62 65 43 57 108 119 106 272 260 238 219 211 210 220 226 231 205 194 228 237
184 9 325 316 356 352 2 351 51 324 313 320 332 3 64 69 65 51 44 50 45 45 42 45 67 57 36 28 60 67 55 349 357 6 341 276 268 252 224 219 238 268 223 240
359 55 301 9 332 334 331 320 316 294 297 338 348 29 56 75 65 61 58 56 51 50 47 45 71 67 39 27 32 64 354 355 358 17 357 338 344 342 333 271 253 260 208 226
24 14 275 22 15 354 5 352 2 356 21 5 37 56 74 82 67 59 53 45 47 40 41 28 49 50 40 19 34 30 360 357 14 5 358 344 356 333 337 305 244 233 250 242
297 340 329 302 24 266 5 12 349 15 43 47 41 42 48 73 60 68 58 46 47 45 35 33 40 42 28 13 25 14 6 1 9 360 349 343 331 303 301 281 268 249 256 233
4 328 14 25 323 331 314 346 352 38 37 27 46 51 38 45 64 65 59 37 41 43 23 38 37 37 18 23 26 13 8 10 5 351 347 344 334 330 313 309 313 284 279 279